Time,TemperatureF,DewpointF,PressureIn,WindDirection,WindDirectionDegrees,WindSpeedMPH,WindSpeedGustMPH,Humidity,HourlyPrecipIn,Conditions,Clouds,dailyrainin,SoftwareType,DateUTC
2017-12-15 00:02:00,13.0,6.3,29.92,WSW,256,0.0,0.0,74,0.00,,---,0.00,VWS V15.00,2017-12-15 05:02:00,
2017-12-15 00:07:00,12.8,6.4,29.92,WSW,256,0.0,0.0,75,0.00,,---,0.00,VWS V15.00,2017-12-15 05:07:00,
2017-12-15 00:12:00,12.8,6.4,29.92,WSW,256,0.0,0.0,75,0.00,,---,0.00,VWS V15.00,2017-12-15 05:12:00,
2017-12-15 00:17:00,12.7,6.3,29.92,WSW,256,0.0,0.0,75,0.00,,---,0.00,VWS V15.00,2017-12-15 05:17:00,
2017-12-15 00:22:00,12.6,6.2,29.92,WSW,256,0.0,0.0,75,0.00,,---,0.00,VWS V15.00,2017-12-15 05:22:00,
2017-12-15 00:27:00,12.4,6.6,29.93,WSW,256,0.0,0.0,77,0.00,,---,0.00,VWS V15.00,2017-12-15 05:27:00,
2017-12-15 00:32:00,12.1,6.3,29.93,WSW,256,0.0,0.0,77,0.00,,---,0.00,VWS V15.00,2017-12-15 05:32:00,
2017-12-15 00:37:00,11.9,6.4,29.93,WSW,256,0.0,0.0,78,0.00,,---,0.00,VWS V15.00,2017-12-15 05:37:00,
2017-12-15 00:42:00,11.8,6.3,29.93,WSW,256,0.0,0.0,78,0.00,,---,0.00,VWS V15.00,2017-12-15 05:42:00,
2017-12-15 00:47:00,11.7,6.2,29.93,WSW,256,0.0,0.0,78,0.00,,---,0.00,VWS V15.00,2017-12-15 05:47:00,
2017-12-15 00:52:00,11.6,6.4,29.93,WSW,256,0.0,0.0,79,0.00,,---,0.00,VWS V15.00,2017-12-15 05:52:00,
2017-12-15 00:57:00,11.5,6.3,29.92,WSW,256,0.0,0.0,79,0.00,,---,0.00,VWS V15.00,2017-12-15 05:57:00,
2017-12-15 01:02:00,11.3,6.1,29.92,WSW,256,0.0,0.0,79,0.00,,---,0.00,VWS V15.00,2017-12-15 06:02:00,
2017-12-15 01:07:00,11.4,6.4,29.92,WSW,256,0.0,0.0,80,0.00,,---,0.00,VWS V15.00,2017-12-15 06:07:00,
2017-12-15 01:12:00,11.4,6.4,29.92,WSW,256,0.0,0.0,80,0.00,,---,0.00,VWS V15.00,2017-12-15 06:12:00,
2017-12-15 01:18:00,11.4,6.4,29.92,WSW,256,0.0,0.0,80,0.00,,---,0.00,VWS V15.00,2017-12-15 06:18:00,
2017-12-15 01:23:00,11.4,6.4,29.93,WSW,256,0.0,0.0,80,0.00,,---,0.00,VWS V15.00,2017-12-15 06:23:00,
2017-12-15 01:28:00,11.4,6.4,29.93,WSW,256,0.0,0.0,80,0.00,,---,0.00,VWS V15.00,2017-12-15 06:28:00,
2017-12-15 01:33:00,11.4,6.4,29.93,WSW,256,0.0,0.0,80,0.00,,---,0.00,VWS V15.00,2017-12-15 06:33:00,
2017-12-15 01:38:00,11.4,6.7,29.93,WSW,256,0.0,0.0,81,0.00,,---,0.00,VWS V15.00,2017-12-15 06:38:00,
2017-12-15 01:43:00,11.3,6.6,29.93,WSW,256,0.0,0.0,81,0.00,,---,0.00,VWS V15.00,2017-12-15 06:43:00,
2017-12-15 01:48:00,11.2,6.5,29.93,WSW,256,0.0,0.0,81,0.00,,---,0.00,VWS V15.00,2017-12-15 06:48:00,
2017-12-15 01:53:00,11.2,6.5,29.93,WSW,256,0.0,0.0,81,0.00,,---,0.00,VWS V15.00,2017-12-15 06:53:00,
2017-12-15 02:03:00,11.1,6.4,29.94,WSW,256,0.0,0.0,81,0.00,,---,0.00,VWS V15.00,2017-12-15 07:03:00,
2017-12-15 02:08:00,11.0,6.3,29.95,WSW,256,0.0,0.0,81,0.00,,---,0.00,VWS V15.00,2017-12-15 07:08:00,
2017-12-15 02:13:00,10.8,6.1,29.95,WSW,256,0.0,0.0,81,0.00,,---,0.00,VWS V15.00,2017-12-15 07:13:00,
2017-12-15 02:18:00,10.6,6.2,29.95,WSW,256,0.0,0.0,82,0.00,,---,0.00,VWS V15.00,2017-12-15 07:18:00,
2017-12-15 02:23:00,10.5,6.1,29.95,WSW,256,0.0,0.0,82,0.00,,---,0.00,VWS V15.00,2017-12-15 07:23:00,
2017-12-15 02:30:00,10.4,6.3,29.95,WSW,256,0.0,0.0,83,0.00,,---,0.00,VWS V15.00,2017-12-15 07:30:00,
2017-12-15 02:35:00,10.4,6.3,29.95,WSW,256,0.0,0.0,83,0.00,,---,0.00,VWS V15.00,2017-12-15 07:35:00,
2017-12-15 02:40:00,10.3,6.2,29.95,WSW,256,0.0,0.0,83,0.00,,---,0.00,VWS V15.00,2017-12-15 07:40:00,
2017-12-15 02:45:00,10.3,6.2,29.95,WSW,256,0.0,0.0,83,0.00,,---,0.00,VWS V15.00,2017-12-15 07:45:00,
2017-12-15 02:50:00,10.3,6.2,29.95,WSW,256,0.0,0.0,83,0.00,,---,0.00,VWS V15.00,2017-12-15 07:50:00,
2017-12-15 02:55:00,10.2,6.1,29.96,WSW,256,0.0,0.0,83,0.00,,---,0.00,VWS V15.00,2017-12-15 07:55:00,
2017-12-15 03:00:00,10.1,6.2,29.96,WSW,256,0.0,0.0,84,0.00,,---,0.00,VWS V15.00,2017-12-15 08:00:00,
2017-12-15 03:05:00,10.0,6.1,29.96,WSW,256,0.0,0.0,84,0.00,,---,0.00,VWS V15.00,2017-12-15 08:05:00,
2017-12-15 03:10:00,9.9,6.0,29.96,WSW,256,0.0,0.0,84,0.00,,---,0.00,VWS V15.00,2017-12-15 08:10:00,
2017-12-15 03:15:00,9.9,6.0,29.96,WSW,256,0.0,0.0,84,0.00,,---,0.00,VWS V15.00,2017-12-15 08:15:00,
2017-12-15 03:20:00,9.8,5.9,29.96,WSW,256,0.0,0.0,84,0.00,,---,0.00,VWS V15.00,2017-12-15 08:20:00,
2017-12-15 03:25:00,9.7,5.8,29.96,WSW,256,0.0,0.0,84,0.00,,---,0.00,VWS V15.00,2017-12-15 08:25:00,
2017-12-15 03:30:00,9.6,6.0,29.96,WSW,256,0.0,0.0,85,0.00,,---,0.00,VWS V15.00,2017-12-15 08:30:00,
2017-12-15 03:36:00,9.5,5.9,29.96,WSW,256,0.0,0.0,85,0.00,,---,0.00,VWS V15.00,2017-12-15 08:36:00,
2017-12-15 03:41:00,9.5,5.9,29.96,WSW,256,0.0,0.0,85,0.00,,---,0.00,VWS V15.00,2017-12-15 08:41:00,
2017-12-15 03:46:00,9.4,5.8,29.96,WSW,256,0.0,0.0,85,0.00,,---,0.00,VWS V15.00,2017-12-15 08:46:00,
2017-12-15 03:51:00,9.3,5.7,29.96,WSW,256,0.0,0.0,85,0.00,,---,0.00,VWS V15.00,2017-12-15 08:51:00,
2017-12-15 03:56:00,9.2,5.9,29.97,WSW,256,0.0,0.0,86,0.00,,---,0.00,VWS V15.00,2017-12-15 08:56:00,
2017-12-15 04:01:00,9.1,5.8,29.97,WSW,256,0.0,0.0,86,0.00,,---,0.00,VWS V15.00,2017-12-15 09:01:00,
2017-12-15 04:06:00,9.2,6.1,29.97,WSW,256,0.0,0.0,87,0.00,,---,0.00,VWS V15.00,2017-12-15 09:06:00,
2017-12-15 04:11:00,9.3,6.2,29.97,WSW,256,0.0,0.0,87,0.00,,---,0.00,VWS V15.00,2017-12-15 09:11:00,
2017-12-15 04:16:00,9.3,6.0,29.97,WSW,256,0.0,0.0,86,0.00,,---,0.00,VWS V15.00,2017-12-15 09:16:00,
2017-12-15 04:21:00,9.2,5.9,29.97,WSW,256,0.0,0.0,86,0.00,,---,0.00,VWS V15.00,2017-12-15 09:21:00,
2017-12-15 04:26:00,9.1,5.8,29.97,WSW,256,0.0,0.0,86,0.00,,---,0.00,VWS V15.00,2017-12-15 09:26:00,
2017-12-15 04:31:00,9.1,6.0,29.97,WSW,256,0.0,0.0,87,0.00,,---,0.00,VWS V15.00,2017-12-15 09:31:00,
2017-12-15 04:36:00,9.0,5.9,29.97,WSW,256,0.0,0.0,87,0.00,,---,0.00,VWS V15.00,2017-12-15 09:36:00,
2017-12-15 04:41:00,8.9,5.8,29.97,WSW,256,0.0,0.0,87,0.00,,---,0.00,VWS V15.00,2017-12-15 09:41:00,
2017-12-15 04:46:00,8.8,5.7,29.97,WSW,256,0.0,0.0,87,0.00,,---,0.00,VWS V15.00,2017-12-15 09:46:00,
2017-12-15 04:51:00,8.7,5.6,29.97,WSW,256,0.0,0.0,87,0.00,,---,0.00,VWS V15.00,2017-12-15 09:51:00,
2017-12-15 04:56:00,8.6,5.5,29.97,WSW,256,0.0,0.0,87,0.00,,---,0.00,VWS V15.00,2017-12-15 09:56:00,
2017-12-15 04:58:00,8.6,5.5,29.97,WSW,256,0.0,0.0,87,0.00,,---,0.00,VWS V15.00,2017-12-15 09:58:00,
2017-12-15 05:03:00,8.5,5.4,29.97,WSW,256,0.0,0.0,87,0.00,,---,0.00,VWS V15.00,2017-12-15 10:03:00,
2017-12-15 05:08:00,8.3,5.2,29.97,WSW,256,0.0,0.0,87,0.00,,---,0.00,VWS V15.00,2017-12-15 10:08:00,
2017-12-15 05:13:00,8.2,5.4,29.97,WSW,256,0.0,0.0,88,0.00,,---,0.00,VWS V15.00,2017-12-15 10:13:00,
2017-12-15 05:18:00,8.2,5.4,29.98,WSW,256,0.0,0.0,88,0.00,,---,0.00,VWS V15.00,2017-12-15 10:18:00,
2017-12-15 05:23:00,8.2,5.4,29.98,WSW,256,0.0,0.0,88,0.00,,---,0.00,VWS V15.00,2017-12-15 10:23:00,
2017-12-15 05:28:00,8.3,5.7,29.98,WSW,256,0.0,0.0,89,0.00,,---,0.00,VWS V15.00,2017-12-15 10:28:00,
2017-12-15 05:33:00,8.3,5.7,29.97,WSW,256,0.0,0.0,89,0.00,,---,0.00,VWS V15.00,2017-12-15 10:33:00,
2017-12-15 05:39:00,8.4,5.8,29.97,WSW,256,0.0,0.0,89,0.00,,---,0.00,VWS V15.00,2017-12-15 10:39:00,
2017-12-15 05:44:00,8.4,5.8,29.97,WSW,256,0.0,0.0,89,0.00,,---,0.00,VWS V15.00,2017-12-15 10:44:00,
2017-12-15 05:49:00,8.3,5.7,29.97,WSW,256,0.0,0.0,89,0.00,,---,0.00,VWS V15.00,2017-12-15 10:49:00,
2017-12-15 05:54:00,8.3,5.7,29.97,WSW,256,0.0,0.0,89,0.00,,---,0.00,VWS V15.00,2017-12-15 10:54:00,
2017-12-15 05:59:00,8.2,5.6,29.97,WSW,256,0.0,0.0,89,0.00,,---,0.00,VWS V15.00,2017-12-15 10:59:00,
2017-12-15 06:05:00,8.3,5.7,29.97,WSW,256,0.0,0.0,89,0.00,,---,0.00,VWS V15.00,2017-12-15 11:05:00,
2017-12-15 06:10:00,8.3,6.0,29.97,WSW,256,0.0,0.0,90,0.00,,---,0.00,VWS V15.00,2017-12-15 11:10:00,
2017-12-15 06:15:00,8.2,5.6,29.98,WSW,256,0.0,0.0,89,0.00,,---,0.00,VWS V15.00,2017-12-15 11:15:00,
2017-12-15 06:20:00,8.2,5.9,29.97,WSW,256,0.0,0.0,90,0.00,,---,0.00,VWS V15.00,2017-12-15 11:20:00,
2017-12-15 06:25:00,8.3,6.0,29.97,WSW,256,0.0,0.0,90,0.00,,---,0.00,VWS V15.00,2017-12-15 11:25:00,
2017-12-15 06:30:00,8.3,6.0,29.98,WSW,256,0.0,0.0,90,0.00,,---,0.00,VWS V15.00,2017-12-15 11:30:00,
2017-12-15 06:35:00,8.3,6.0,29.98,WSW,256,0.0,0.0,90,0.00,,---,0.00,VWS V15.00,2017-12-15 11:35:00,
2017-12-15 06:40:00,8.3,6.0,29.98,WSW,256,0.0,0.0,90,0.00,,---,0.00,VWS V15.00,2017-12-15 11:40:00,
2017-12-15 06:46:00,8.3,6.0,29.98,WSW,256,0.0,0.0,90,0.00,,---,0.00,VWS V15.00,2017-12-15 11:46:00,
2017-12-15 06:51:00,8.3,6.0,29.98,WSW,256,0.0,0.0,90,0.00,,---,0.00,VWS V15.00,2017-12-15 11:51:00,
2017-12-15 06:56:00,8.2,5.6,29.99,WSW,256,0.0,0.0,89,0.00,,---,0.00,VWS V15.00,2017-12-15 11:56:00,
2017-12-15 07:01:00,8.2,5.6,29.98,WSW,256,0.0,0.0,89,0.00,,---,0.00,VWS V15.00,2017-12-15 12:01:00,
2017-12-15 07:06:00,8.2,5.6,29.98,WSW,256,0.0,0.0,89,0.00,,---,0.00,VWS V15.00,2017-12-15 12:06:00,
2017-12-15 07:11:00,8.3,6.0,29.98,WSW,256,0.0,0.0,90,0.00,,---,0.00,VWS V15.00,2017-12-15 12:11:00,
2017-12-15 07:16:00,8.3,6.0,29.99,WSW,256,0.0,0.0,90,0.00,,---,0.00,VWS V15.00,2017-12-15 12:16:00,
2017-12-15 07:26:00,8.4,6.1,29.99,WSW,256,0.0,0.0,90,0.00,,---,0.00,VWS V15.00,2017-12-15 12:26:00,
2017-12-15 07:31:00,8.4,6.1,29.99,WSW,256,0.0,0.0,90,0.00,,---,0.00,VWS V15.00,2017-12-15 12:31:00,
2017-12-15 07:36:00,8.5,6.2,29.99,WSW,256,0.0,0.0,90,0.00,,---,0.00,VWS V15.00,2017-12-15 12:36:00,
2017-12-15 07:41:00,8.6,6.3,29.99,WSW,256,0.0,0.0,90,0.00,,---,0.00,VWS V15.00,2017-12-15 12:41:00,